Regional Weather Roundup
Issued by NWS Little Rock, AR

Home | Current Version | Previous Version | Text Only | Print | Product List | Glossary Off
Versions: 1 2 3 4 5 6 7 8 9 10 11 12 13 14 15 16 17 18 19 20 21 22 23 24 25 26 27

000
ASUS44 KLZK 301505
RWRLZK

WEATHER ROUNDUP FOR ARKANSAS
NATIONAL WEATHER SERVICE LITTLE ROCK AR
1000 AM CDT MON MAY 30 2016

NOTE: "FAIR" INDICATES FEW OR NO CLOUDS BELOW 12,000 FEET WITH NO
SIGNIFICANT WEATHER AND/OR OBSTRUCTIONS TO VISIBILITY.

ARZ001-003-010-029-301600-
NORTHWEST ARKANSAS

CITY           SKY/WX    TMP DP  RH WIND       PRES   REMARKS
FAYETTEVILLE   TSTM      65  65 100 CALM      30.12R FOG
FORT SMITH     CLOUDY    72  64  76 NE3       30.08S
HARRISON       CLOUDY    74  64  71 E5        30.11S
BENTONVILLE    CLOUDY    72  61  68 SW10      30.11S
ROGERS           N/A     74  64  71 SW7       30.11S
SILOAM SPGS    CLOUDY    68  57  68 SW5       30.12S
HIGHFILL       CLOUDY    72  64  76 SW8       30.11S
SPRINGDALE     PTSUNNY   72  63  73 SW15      30.14R
$$

ARZ004-005-016-301600-
NORTH CENTRAL ARKANSAS

CITY           SKY/WX    TMP DP  RH WIND       PRES   REMARKS
BATESVILLE     SUNNY     81  64  57 E6        30.08F
FLIPPIN        CLOUDY   N/A N/A N/A SE3       30.06F
MTN HOME       CLOUDY    77  67  71 E3        30.08F
$$

ARZ040-041-301600-
WEST CENTRAL ARKANSAS

CITY           SKY/WX    TMP DP  RH WIND       PRES   REMARKS
MENA           CLOUDY    70  66  88 CALM      30.09F
MOUNT IDA      CLOUDY    71  65  81 VRB3      30.07R
$$

ARZ009-017-025-026-028-301600-
NORTHEAST ARKANSAS

CITY           SKY/WX    TMP DP  RH WIND       PRES   REMARKS
CORNING          N/A     81  70  69 CALM      30.08F
JONESBORO      SUNNY     82  63  52 VRB3      30.07F
NEWPORT        SUNNY     82  71  69 CALM      30.09F HX  86
WALNUT RIDGE   SUNNY     79  66  65 E3        30.07F
BLYTHEVILLE    SUNNY     83  67  58 NE3       30.07F HX  85
$$

ARZ022-023-033-042-044-301600-
CENTRAL ARKANSAS

CITY           SKY/WX    TMP DP  RH WIND       PRES   REMARKS
LITTLE ROCK    PTSUNNY   76  66  71 CALM      30.07S
N LITTLE ROCK    N/A     73  64  73 S3        30.05F
SEARCY         MOSUNNY   78  68  71 E5        30.08F
HOT SPRINGS    CLOUDY    74  63  68 VRB3      30.08F
RUSSELLVILLE   CLOUDY    71  65  81 VRB5      30.07S
CLINTON        FAIR      73  66  78 CALM      30.08F HAZE
$$

ARZ036-301600-
EAST ARKANSAS

CITY           SKY/WX    TMP DP  RH WIND       PRES   REMARKS
WEST MEMPHIS   SUNNY     83  67  58 NE3       30.06F HX  85
$$

ARZ050-053-066-070-073-301600-
SOUTHWEST ARKANSAS

CITY           SKY/WX    TMP DP  RH WIND       PRES   REMARKS
ARKADELPHIA    FAIR      75  66  73 CALM      30.07F
CAMDEN         MOSUNNY   81  63  54 E3        30.06F
TEXARKANA      CLOUDY    77  68  73 VRB3      30.06S
EL DORADO      MOSUNNY   78  64  61 VRB3      30.07F
DE QUEEN       CLOUDY    72  67  84 CALM      30.04F
$$

ARZ056-057-069-301600-
SOUTHEAST ARKANSAS

CITY           SKY/WX    TMP DP  RH WIND       PRES   REMARKS
PINE BLUFF     CLOUDY    76  66  71 E3        30.07F
STUTTGART      CLOUDY    79  63  57 E6        30.07F
MONTICELLO     CLOUDY    81  66  60 CALM      30.07F

$$






USA.gov is the U.S. government's official web portal to all federal, state and local government web resources and services.